KE0TRL Weather Reports


Display with metric or nautical units.
time (UTC)temp
F
wind
direction
speed
MPH
gust
MPH
rain 1hr
in
rain 24hr
in
rain mn
in
humidity
%
barometer
mb
20220701170004 69 248 0.0 0.0 0.00 0.00 1.27 85 1017.3
20220701165803 69 45 0.0 1.0 0.00 0.00 1.27 85 1017.3
20220701165602 69 68 0.0 1.0 0.00 0.00 1.27 85 1017.3
20220701165502 69 0 1.0 1.0 0.00 0.00 1.27 85 1017.3
20220701165303 69 315 1.0 1.0 0.00 0.00 1.27 85 1017.3
20220701165103 69 270 0.0 1.0 0.00 0.00 1.27 85 1017.3
20220701164904 69 270 1.0 1.0 0.00 0.00 1.27 85 1017.3
20220701164702 69 0 0.0 1.0 0.00 0.00 1.27 85 1017.3
20220701164603 69 293 1.0 1.0 0.00 0.00 1.27 86 1017.3
20220701164503 69 248 0.0 0.0 0.00 0.00 1.27 86 1017.3
20220701164402 69 248 0.0 0.0 0.00 0.00 1.27 86 1017.3
20220701164203 69 293 0.0 0.0 0.00 0.00 1.27 86 1017.3
20220701164003 69 68 0.0 0.0 0.00 0.00 1.27 86 1017.3
20220701163803 69 158 0.0 0.0 0.00 0.00 1.27 86 1016.9
20220701163602 69 248 0.0 1.0 0.00 0.00 1.27 86 1016.9
20220701163503 68 248 0.0 1.0 0.00 0.00 1.27 86 1017.3
20220701163303 68 293 0.0 1.0 0.00 0.00 1.27 86 1017.3
20220701163102 68 293 1.0 1.0 0.00 0.00 1.27 86 1017.3
20220701162902 68 0 0.0 1.0 0.00 0.00 1.27 86 1016.9
20220701162802 68 180 0.0 1.0 0.00 0.00 1.27 86 1016.9
20220701162603 68 23 0.0 1.0 0.00 0.00 1.27 86 1016.9
20220701162403 68 315 1.0 1.0 0.00 0.00 1.27 86 1016.9
20220701162203 68 338 0.0 1.0 0.00 0.00 1.27 86 1016.9
20220701162003 68 270 0.0 2.0 0.00 0.00 1.27 86 1016.6
20220701161902 68 203 0.0 2.0 0.00 0.00 1.27 88 1016.6
20220701161802 68 270 0.0 2.0 0.00 0.00 1.27 88 1016.6
20220701161703 68 270 1.0 2.0 0.00 0.00 1.27 88 1016.9
20220701161502 68 338 2.0 2.0 0.00 0.00 1.27 88 1016.9
20220701161302 67 315 0.0 2.0 0.00 0.00 1.27 88 1016.9
20220701161203 67 270 2.0 2.0 0.00 0.00 1.27 88 1016.6
20220701161102 67 270 0.0 1.0 0.00 0.00 1.27 88 1016.6
20220701160902 67 293 0.0 2.0 0.00 0.00 1.27 88 1016.6
20220701160703 67 293 0.0 2.0 0.00 0.00 1.27 88 1016.6
20220701160503 67 270 2.0 2.0 0.00 0.00 1.27 88 1016.6
20220701160403 67 203 0.0 0.0 0.00 0.00 1.27 88 1016.6
20220701160302 67 180 0.0 0.0 0.00 0.00 1.27 88 1016.6
20220701160203 67 180 0.0 0.0 0.00 0.00 1.27 88 1016.6
20220701160004 67 270 0.0 0.0 0.01 0.00 1.27 88 1016.6
20220701155803 67 315 0.0 1.0 0.01 0.00 1.27 88 1016.6
20220701155602 67 248 0.0 1.0 0.01 0.00 1.27 88 1016.6
20220701155502 67 225 1.0 1.0 0.01 0.00 1.27 88 1016.6
20220701155403 67 90 1.0 1.0 0.01 0.00 1.27 88 1016.6
20220701155303 67 90 0.0 0.0 0.01 0.00 1.27 88 1016.6
20220701155102 67 180 0.0 0.0 0.01 0.00 1.27 88 1016.6
20220701154903 67 270 0.0 0.0 0.01 0.00 1.27 88 1016.6
20220701154703 67 180 0.0 1.0 0.01 0.00 1.27 88 1016.6
20220701154603 68 248 0.0 1.0 0.01 0.00 1.27 86 1016.6
20220701154503 68 225 0.0 1.0 0.01 0.00 1.27 86 1016.6
20220701154403 68 225 1.0 1.0 0.01 0.00 1.27 86 1016.6
20220701154004 68 248 1.0 1.0 0.01 0.00 1.27 86 1016.6
20220701153903 68 203 1.0 1.0 0.01 0.00 1.27 86 1016.6
20220701153803 68 203 0.0 1.0 0.01 0.00 1.27 86 1016.6
20220701153603 68 45 1.0 1.0 0.01 0.00 1.27 86 1016.6
20220701153403 68 248 0.0 0.0 0.01 0.00 1.27 86 1016.6
20220701153204 68 248 0.0 1.0 0.01 0.00 1.27 86 1016.9
20220701153103 68 225 0.0 1.0 0.01 0.00 1.27 86 1016.9
20220701153004 68 270 0.0 1.0 0.00 0.00 1.26 86 1016.9
20220701152902 68 270 0.0 1.0 0.00 0.00 1.26 86 1016.9
20220701152702 68 270 1.0 1.0 0.00 0.00 1.26 86 1016.9
20220701152503 68 203 0.0 0.0 0.00 0.00 1.26 86 1016.9
20220701152302 68 270 0.0 0.0 0.00 0.00 1.26 86 1016.9
20220701152202 67 293 0.0 0.0 0.00 0.00 1.26 86 1016.9
20220701152102 67 248 0.0 0.0 0.00 0.00 1.26 86 1016.9
20220701152004 67 248 0.0 0.0 0.00 0.00 1.26 86 1016.6
20220701151602 68 225 0.0 0.0 0.00 0.00 1.26 86 1016.6
20220701151202 68 248 0.0 0.0 0.00 0.00 1.26 86 1016.6
20220701151003 68 135 0.0 0.0 0.00 0.00 1.26 86 1016.9
20220701150802 68 225 0.0 0.0 0.00 0.00 1.26 88 1016.9
20220701150702 68 180 0.0 0.0 0.00 0.00 1.26 88 1016.9
20220701150602 68 225 0.0 0.0 0.00 0.00 1.26 88 1016.6
20220701150503 67 225 0.0 0.0 0.00 0.00 1.26 88 1016.6
20220701150303 67 135 0.0 0.0 0.00 0.00 1.26 88 1016.9
20220701150102 67 68 0.0 0.0 0.00 0.00 1.26 88 1016.6
20220701145902 66 315 0.0 2.0 0.00 0.00 1.26 88 1016.6
20220701145802 66 68 0.0 2.0 0.00 0.00 1.26 88 1016.6
20220701145702 66 0 0.0 2.0 0.00 0.00 1.26 88 1016.6
20220701145603 66 0 1.0 2.0 0.00 0.00 1.26 88 1016.6
20220701145403 66 45 1.0 1.0 0.00 0.00 1.26 88 1016.3
20220701145202 66 45 0.0 2.0 0.00 0.00 1.26 88 1016.6
20220701145102 66 23 0.0 2.0 0.00 0.00 1.26 88 1016.6
20220701145003 66 23 0.0 2.0 0.00 0.00 1.26 88 1016.6
20220701144802 66 45 1.0 2.0 0.00 0.00 1.26 88 1016.6
20220701144602 66 45 2.0 2.0 0.00 0.00 1.26 88 1016.6
20220701144404 66 23 0.0 0.0 0.00 0.00 1.26 88 1016.6
20220701144303 66 45 0.0 0.0 0.00 0.00 1.26 88 1016.6
20220701144202 66 315 0.0 0.0 0.00 0.00 1.26 88 1016.6
20220701144103 66 315 0.0 0.0 0.00 0.00 1.26 88 1016.6
20220701143903 67 270 0.0 0.0 0.00 0.00 1.26 88 1016.3
20220701143702 67 248 0.0 0.0 0.00 0.00 1.26 88 1016.3
20220701143502 66 293 0.0 0.0 0.00 0.00 1.26 88 1016.6
20220701143403 66 68 0.0 0.0 0.00 0.00 1.26 88 1016.6
20220701143204 66 270 0.0 0.0 0.00 0.00 1.26 88 1016.6
20220701143003 66 270 0.0 0.0 0.00 0.00 1.26 88 1016.6
20220701142804 66 23 0.0 0.0 0.00 0.00 1.26 88 1016.6
20220701142602 66 45 0.0 0.0 0.00 0.00 1.26 88 1016.6
20220701142402 66 270 0.0 0.0 0.00 0.00 1.26 88 1016.6
20220701142002 66 23 0.0 1.0 0.00 0.00 1.26 88 1016.6
20220701141903 66 248 0.0 1.0 0.00 0.00 1.26 88 1016.6
20220701141802 66 293 0.0 1.0 0.00 0.00 1.26 88 1016.6
20220701141702 66 293 0.0 1.0 0.00 0.00 1.26 88 1016.9
20220701141503 66 293 1.0 1.0 0.00 0.00 1.26 88 1016.9
20220701141303 66 270 0.0 1.0 0.00 0.00 1.26 88 1016.9
20220701141103 66 293 1.0 1.0 0.00 0.00 1.26 88 1016.9
20220701141003 66 248 1.0 1.0 0.00 0.00 1.26 88 1016.9
20220701140903 66 338 0.0 0.0 0.00 0.00 1.26 88 1016.9
20220701140803 66 338 0.0 2.0 0.00 0.00 1.26 88 1016.9
20220701140602 66 270 0.0 2.0 0.00 0.00 1.26 88 1016.9
20220701140403 66 45 0.0 2.0 0.00 0.00 1.26 88 1016.9
20220701140202 66 23 1.0 3.0 0.00 0.00 1.26 88 1016.9
20220701140102 65 248 1.0 3.0 0.00 0.00 1.26 88 1016.9
20220701140004 65 248 2.0 3.0 0.01 0.00 1.26 88 1016.9
20220701135902 65 248 0.0 3.0 0.01 0.00 1.26 88 1016.9
20220701135702 65 270 3.0 3.0 0.01 0.00 1.26 88 1017.3
20220701135503 65 158 2.0 2.0 0.01 0.00 1.26 88 1017.3
20220701135303 66 113 1.0 2.0 0.01 0.00 1.26 88 1017.3
20220701135203 65 113 2.0 2.0 0.01 0.00 1.26 88 1016.9
20220701135103 65 45 2.0 2.0 0.01 0.00 1.26 88 1016.9
20220701135003 65 45 2.0 2.0 0.01 0.00 1.26 88 1016.9
20220701134803 66 0 0.0 1.0 0.01 0.00 1.26 88 1016.6
20220701134602 66 248 1.0 1.0 0.01 0.00 1.26 88 1016.6
20220701134402 66 248 0.0 1.0 0.01 0.00 1.26 88 1016.6
20220701134302 66 270 0.0 1.0 0.01 0.00 1.26 88 1016.6
20220701134204 66 248 1.0 1.0 0.01 0.00 1.26 88 1016.6
20220701134102 66 248 0.0 0.0 0.01 0.00 1.26 88 1016.6
20220701133903 66 270 0.0 0.0 0.01 0.00 1.26 88 1016.6
20220701133702 66 270 0.0 0.0 0.01 0.00 1.26 88 1016.9
20220701133503 66 225 0.0 0.0 0.01 0.00 1.26 88 1016.9
20220701133402 66 180 0.0 0.0 0.01 0.00 1.26 88 1016.9
20220701133203 65 180 0.0 2.0 0.01 0.00 1.26 88 1016.9
20220701133102 65 270 0.0 2.0 0.01 0.00 1.26 88 1016.9
20220701133004 65 248 0.0 2.0 0.01 0.00 1.26 88 1017.3
20220701132903 65 248 1.0 2.0 0.01 0.00 1.26 88 1017.3
20220701132703 65 270 2.0 2.0 0.01 0.00 1.26 88 1016.9
20220701132503 66 248 0.0 0.0 0.01 0.00 1.26 88 1016.9
20220701132303 66 180 0.0 0.0 0.01 0.00 1.26 88 1016.9
20220701132003 66 225 0.0 0.0 0.01 0.00 1.26 88 1016.9
20220701131802 66 225 0.0 0.0 0.01 0.00 1.26 88 1016.9
20220701131603 65 270 0.0 1.0 0.01 0.00 1.26 88 1016.9
20220701131402 65 270 0.0 1.0 0.01 0.00 1.26 88 1016.9
20220701131302 65 270 1.0 1.0 0.01 0.00 1.26 88 1016.9
20220701131203 65 45 0.0 0.0 0.00 0.00 1.25 88 1016.9
20220701131103 65 45 0.0 0.0 0.00 0.00 1.25 88 1017.3
20220701130903 65 90 0.0 0.0 0.00 0.00 1.25 88 1017.3
20220701130703 66 45 0.0 0.0 0.00 0.00 1.25 88 1017.3
20220701130502 66 203 0.0 0.0 0.00 0.00 1.25 88 1017.3
20220701130404 65 135 0.0 0.0 0.00 0.00 1.25 88 1017.6
20220701130302 65 270 0.0 0.0 0.00 0.00 1.25 88 1017.6
20220701130202 66 270 0.0 0.0 0.00 0.00 1.25 88 1017.6
20220701130004 66 203 0.0 0.0 0.05 0.00 1.25 88 1017.6
20220701125802 66 225 0.0 1.0 0.05 0.00 1.25 88 1017.6
20220701125602 65 180 0.0 1.0 0.05 0.00 1.25 88 1017.3
20220701125503 65 180 0.0 2.0 0.05 0.00 1.25 88 1017.3
20220701125402 65 203 1.0 2.0 0.05 0.00 1.25 88 1017.3
20220701125303 65 203 0.0 2.0 0.05 0.00 1.25 88 1017.3
20220701125103 65 203 0.0 2.0 0.05 0.00 1.25 88 1017.3
20220701124903 65 113 2.0 3.0 0.05 0.00 1.25 88 1017.3
20220701124702 65 0 1.0 3.0 0.04 0.00 1.24 88 1017.3
20220701124602 65 225 3.0 4.0 0.04 0.00 1.24 88 1017.3
20220701124503 65 293 3.0 4.0 0.04 0.00 1.24 88 1017.3
20220701124402 65 293 2.0 4.0 0.04 0.00 1.24 88 1017.3
20220701124203 65 90 3.0 4.0 0.04 0.00 1.24 88 1017.3
20220701124003 65 45 2.0 5.0 0.04 0.00 1.24 88 1017.3
20220701123802 65 293 4.0 5.0 0.03 0.00 1.23 88 1016.9
20220701123703 65 0 3.0 5.0 0.03 0.00 1.23 88 1016.9
20220701123603 65 45 5.0 5.0 0.03 0.00 1.23 88 1016.9
20220701123302 65 45 3.0 4.0 0.03 0.00 1.23 88 1016.9
20220701123102 65 270 4.0 4.0 0.02 0.00 1.22 88 1017.3
20220701122903 65 315 4.0 4.0 0.02 0.00 1.22 88 1017.3
20220701122802 65 158 2.0 6.0 0.02 0.00 1.22 88 1017.3
20220701122702 65 90 2.0 6.0 0.02 0.00 1.22 88 1017.3
20220701122602 65 90 3.0 6.0 0.02 0.00 1.22 88 1017.3
20220701122404 65 270 3.0 6.0 0.02 0.00 1.22 88 1017.3
20220701122202 65 0 4.0 6.0 0.02 0.00 1.22 88 1017.3
20220701122003 65 315 5.0 6.0 0.02 0.00 1.22 88 1017.3
20220701121903 65 45 6.0 8.0 0.02 0.00 1.22 88 1017.3
20220701121802 65 270 2.0 8.0 0.02 0.00 1.22 88 1017.3
20220701121702 65 270 3.0 8.0 0.02 0.00 1.22 88 1017.3
20220701121503 65 315 6.0 8.0 0.02 0.00 1.22 88 1017.3
20220701121303 65 270 4.0 7.0 0.02 0.00 1.22 88 1017.3
20220701121102 65 225 3.0 5.0 0.02 0.00 1.22 88 1017.3
20220701121003 65 293 4.0 5.0 0.02 0.00 1.22 88 1017.3
20220701120903 65 248 3.0 5.0 0.02 0.00 1.22 88 1017.6
20220701120802 65 248 2.0 5.0 0.02 0.00 1.22 88 1017.6
20220701120602 65 293 3.0 4.0 0.02 0.00 1.22 88 1017.6
20220701120402 66 270 3.0 5.0 0.01 0.00 1.21 88 1017.6
20220701120203 65 293 2.0 8.0 0.01 0.00 1.21 88 1017.6
20220701120103 65 248 2.0 8.0 0.00 0.00 1.20 88 1017.6
20220701120004 65 45 5.0 8.0 0.38 0.00 1.20 88 1017.6
20220701115902 65 45 3.0 8.0 0.38 0.00 1.20 88 1017.6
20220701115703 66 270 8.0 8.0 0.38 0.00 1.20 88 1017.6
20220701115503 66 293 2.0 7.0 0.37 0.00 1.19 88 1017.6
20220701115302 66 23 3.0 7.0 0.36 0.00 1.18 88 1017.6
20220701115203 66 45 6.0 7.0 0.35 0.00 1.17 88 1017.6
20220701115102 66 45 7.0 7.0 0.35 0.00 1.17 88 1017.6
20220701115003 66 45 4.0 6.0 0.35 0.00 1.17 88 1017.6
20220701114803 66 315 6.0 6.0 0.35 0.00 1.17 88 1017.3
20220701114403 66 338 3.0 6.0 0.35 0.00 1.17 88 1017.3
20220701114304 66 270 4.0 6.0 0.35 0.00 1.17 88 1017.3
20220701114203 66 0 3.0 6.0 0.35 0.00 1.17 88 1017.3
20220701114102 66 0 4.0 6.0 0.35 0.00 1.17 88 1016.9
20220701113902 66 338 6.0 6.0 0.35 0.00 1.17 88 1017.3
20220701113803 66 68 6.0 7.0 0.34 0.00 1.15 88 1017.3
20220701113602 66 270 5.0 7.0 0.34 0.00 1.15 88 1017.3
20220701113504 66 293 5.0 7.0 0.34 0.00 1.15 88 1017.3
20220701113403 66 293 4.0 7.0 0.34 0.00 1.15 86 1017.3
20220701113203 66 270 7.0 7.0 0.32 0.00 1.13 86 1017.3
20220701113002 66 293 4.0 5.0 0.31 0.00 1.12 86 1016.9
20220701112903 66 270 5.0 5.0 0.30 0.00 1.12 86 1016.9
20220701112802 66 23 3.0 5.0 0.28 0.00 1.10 86 1016.9
20220701112702 66 23 5.0 5.0 0.28 0.00 1.10 86 1016.9
20220701112603 66 293 4.0 4.0 0.26 0.00 1.08 86 1016.9
20220701112503 66 293 3.0 4.0 0.26 0.00 1.08 86 1016.9
20220701112302 66 0 4.0 4.0 0.25 0.00 1.07 86 1016.9
20220701112003 66 338 2.0 2.0 0.22 0.00 1.04 86 1016.9
20220701111903 66 23 1.0 2.0 0.18 0.00 1.00 86 1016.6
20220701111803 66 23 2.0 2.0 0.18 0.00 1.00 86 1016.6
20220701111704 66 23 1.0 2.0 0.14 0.00 0.96 86 1016.9
20220701111603 66 23 2.0 2.0 0.14 0.00 0.96 86 1016.9
20220701111403 66 270 2.0 2.0 0.13 0.00 0.95 86 1016.6
20220701111203 66 248 2.0 2.0 0.13 0.00 0.95 86 1016.3
20220701111102 66 293 0.0 0.0 0.12 0.00 0.94 86 1016.3
20220701111003 66 113 0.0 0.0 0.06 0.00 0.88 86 1016.3
20220701110803 66 113 0.0 1.0 0.06 0.00 0.88 86 1016.3
20220701110603 66 293 0.0 2.0 0.02 0.00 0.84 86 1016.3
20220701110503 66 0 1.0 2.0 0.00 0.00 0.82 86 1016.3
20220701110403 66 68 1.0 2.0 0.00 0.00 0.82 86 1015.9
20220701110303 66 68 2.0 2.0 0.00 0.00 0.82 86 1015.9
20220701110202 66 23 2.0 2.0 0.00 0.00 0.82 86 1015.9
20220701110102 66 23 1.0 1.0 0.00 0.00 0.82 86 1015.9
20220701105903 66 0 0.0 1.0 0.81 0.00 0.81 86 1015.9
20220701105602 66 338 1.0 2.0 0.78 0.00 0.78 86 1015.6
20220701105502 66 270 1.0 2.0 0.74 0.00 0.74 86 1015.6
20220701105403 66 270 1.0 2.0 0.74 0.00 0.74 86 1015.6
20220701105303 66 68 2.0 2.0 0.72 0.00 0.72 86 1015.2
20220701105202 66 68 2.0 2.0 0.72 0.00 0.72 85 1015.6
20220701105004 66 338 2.0 2.0 0.68 0.00 0.68 85 1015.6
20220701104803 66 23 2.0 2.0 0.65 0.00 0.65 85 1015.6
20220701104702 66 270 1.0 2.0 0.64 0.00 0.64 86 1015.6
20220701104602 66 315 2.0 3.0 0.63 0.00 0.63 86 1015.6
20220701104503 66 315 2.0 3.0 0.63 0.00 0.63 85 1015.6
20220701104403 66 23 1.0 3.0 0.62 0.00 0.62 85 1015.6
20220701104302 66 23 2.0 3.0 0.62 0.00 0.62 85 1015.6
20220701104103 66 180 3.0 3.0 0.61 0.00 0.61 86 1015.6
20220701103903 66 293 3.0 3.0 0.59 0.00 0.59 86 1015.9
20220701103803 65 293 3.0 3.0 0.56 0.00 0.56 86 1015.6
20220701103702 65 23 3.0 3.0 0.53 0.00 0.53 86 1015.6
20220701103602 66 23 3.0 3.0 0.53 0.00 0.53 86 1015.6
20220701103502 66 158 3.0 3.0 0.45 0.00 0.45 86 1015.6
20220701103402 66 158 3.0 3.0 0.45 0.00 0.45 86 1015.6
20220701103202 68 293 2.0 2.0 0.34 0.00 0.34 86 1015.6
20220701103003 70 45 0.0 1.0 0.20 0.00 0.20 83 1015.9
20220701102902 70 203 0.0 2.0 0.12 0.00 0.12 83 1015.9
20220701102803 70 203 0.0 2.0 0.12 0.00 0.12 80 1015.9
20220701102702 70 248 0.0 2.0 0.10 0.00 0.10 80 1015.9
20220701102603 70 248 1.0 2.0 0.10 0.00 0.10 80 1015.9
20220701102502 70 68 2.0 2.0 0.08 0.00 0.08 80 1015.9
20220701102303 71 68 1.0 2.0 0.08 0.00 0.08 79 1015.6
20220701102203 71 113 2.0 2.0 0.06 0.00 0.06 79 1015.6
20220701102102 72 113 1.0 2.0 0.06 0.00 0.06 79 1015.6
20220701102002 72 113 2.0 2.0 0.06 0.00 0.06 79 1015.6
20220701101902 72 113 1.0 1.0 0.06 0.00 0.06 75 1015.2
20220701101702 73 113 1.0 1.0 0.04 0.00 0.04 73 1015.2
20220701101503 73 180 0.0 1.0 0.04 0.00 0.04 70 1015.2
20220701101402 73 315 1.0 1.0 0.02 0.00 0.02 69 1014.9
20220701101202 73 270 1.0 1.0 0.02 0.00 0.02 69 1014.9
20220701101103 73 45 1.0 1.0 0.02 0.00 0.02 69 1014.9
20220701101003 73 45 1.0 1.0 0.02 0.00 0.02 66 1014.9
20220701100802 74 68 1.0 1.0 0.01 0.00 0.01 65 1014.9
20220701100602 74 68 1.0 1.0 0.00 0.00 0.00 63 1014.9
20220701100503 75 45 1.0 1.0 0.00 0.00 0.00 63 1014.9
20220701100402 75 270 0.0 1.0 0.00 0.00 0.00 63 1014.9
20220701100303 75 270 0.0 1.0 0.00 0.00 0.00 61 1014.6
20220701100202 75 293 0.0 1.0 0.00 0.00 0.00 61 1014.6
20220701100103 75 293 1.0 1.0 0.00 0.00 0.00 61 1014.6
20220701095903 75 270 0.0 2.0 0.00 0.00 0.00 61 1014.2
20220701095703 75 68 0.0 2.0 0.00 0.00 0.00 61 1014.2
20220701095602 75 23 1.0 2.0 0.00 0.00 0.00 61 1014.2
20220701095502 75 270 2.0 2.0 0.00 0.00 0.00 61 1014.6
20220701095403 75 270 1.0 2.0 0.00 0.00 0.00 61 1014.2
20220701095302 75 68 1.0 2.0 0.00 0.00 0.00 61 1014.2
20220701095203 75 68 1.0 2.0 0.00 0.00 0.00 61 1014.2
20220701095003 75 270 0.0 3.0 0.00 0.00 0.00 61 1014.2
20220701094803 75 45 2.0 3.0 0.00 0.00 0.00 61 1014.2
20220701094704 75 45 3.0 3.0 0.00 0.00 0.00 61 1013.9
20220701094603 75 293 2.0 3.0 0.00 0.00 0.00 61 1013.9
20220701094502 75 293 0.0 2.0 0.00 0.00 0.00 61 1014.2
20220701094402 75 45 0.0 2.0 0.00 0.00 0.00 61 1013.9
20220701094302 75 45 1.0 2.0 0.00 0.00 0.00 61 1013.9
20220701094103 75 0 0.0 0.0 0.00 0.00 0.00 61 1013.9
20220701093903 75 203 0.0 2.0 0.00 0.00 0.00 61 1013.9
20220701093803 75 315 0.0 2.0 0.00 0.00 0.00 61 1013.9
20220701093702 75 68 0.0 2.0 0.00 0.00 0.00 61 1013.9
20220701093603 75 68 1.0 2.0 0.00 0.00 0.00 61 1013.9
20220701093502 75 158 2.0 2.0 0.00 0.00 0.00 61 1014.2
20220701093403 75 158 0.0 0.0 0.00 0.00 0.00 61 1014.2
20220701093203 75 270 0.0 0.0 0.00 0.00 0.00 61 1013.9
20220701093002 75 23 0.0 0.0 0.00 0.00 0.00 61 1014.2
20220701092902 75 270 0.0 1.0 0.00 0.00 0.00 61 1014.2
20220701092703 75 225 0.0 2.0 0.00 0.00 0.00 61 1014.2
20220701092603 75 315 0.0 2.0 0.00 0.00 0.00 61 1014.2
20220701092502 75 315 1.0 2.0 0.00 0.00 0.00 61 1014.2
20220701092303 75 270 2.0 2.0 0.00 0.00 0.00 61 1014.2
20220701092102 75 338 0.0 2.0 0.00 0.00 0.00 61 1014.2
20220701092002 75 113 0.0 2.0 0.00 0.00 0.00 61 1014.2
20220701091903 75 338 0.0 2.0 0.00 0.00 0.00 61 1013.9
20220701091803 75 338 1.0 2.0 0.00 0.00 0.00 61 1014.2
20220701091702 75 270 2.0 2.0 0.00 0.00 0.00 61 1013.9
20220701091603 75 270 0.0 0.0 0.00 0.00 0.00 61 1014.2
20220701091403 75 45 0.0 0.0 0.00 0.00 0.00 61 1014.2
20220701091203 75 45 0.0 0.0 0.00 0.00 0.00 61 1013.9
20220701091103 75 270 0.0 0.0 0.00 0.00 0.00 61 1014.2
20220701091003 75 248 0.0 0.0 0.00 0.00 0.00 61 1014.2
20220701090902 75 248 0.0 0.0 0.00 0.00 0.00 61 1013.9
20220701090802 75 203 0.0 0.0 0.00 0.00 0.00 61 1013.9
20220701090702 75 203 0.0 0.0 0.00 0.00 0.00 61 1013.9
20220701090503 75 90 0.0 0.0 0.00 0.00 0.00 61 1013.9
20220701090302 75 293 0.0 0.0 0.00 0.00 0.00 61 1013.9
20220701090203 75 270 0.0 0.0 0.00 0.00 0.00 61 1013.9
20220701090003 75 248 0.0 1.0 0.00 0.00 0.00 61 1013.5
20220701085903 75 180 0.0 2.0 0.00 0.00 0.00 61 1013.5
20220701085803 75 180 0.0 2.0 0.00 0.00 0.00 61 1013.9
20220701085603 75 68 0.0 2.0 0.00 0.00 0.00 61 1013.5
20220701085403 75 68 2.0 2.0 0.00 0.00 0.00 61 1013.9
20220701085303 75 248 0.0 2.0 0.00 0.00 0.00 61 1013.9
20220701085202 75 225 0.0 2.0 0.00 0.00 0.00 61 1013.9
20220701085102 75 225 2.0 2.0 0.00 0.00 0.00 61 1013.9
20220701085002 75 180 2.0 2.0 0.00 0.00 0.00 61 1013.9
20220701084902 75 180 0.0 0.0 0.00 0.00 0.00 61 1013.5
20220701084702 75 315 0.0 0.0 0.00 0.00 0.00 61 1013.9
20220701084503 75 315 0.0 0.0 0.00 0.00 0.00 61 1013.9
20220701084402 75 248 0.0 1.0 0.00 0.00 0.00 61 1013.9
20220701084302 75 23 0.0 1.0 0.00 0.00 0.00 61 1013.9
20220701084202 75 23 0.0 1.0 0.00 0.00 0.00 61 1013.9
20220701084103 75 68 0.0 1.0 0.00 0.00 0.00 61 1013.9
20220701084002 75 68 1.0 1.0 0.00 0.00 0.00 61 1013.5
20220701083803 75 113 1.0 1.0 0.00 0.00 0.00 61 1013.9
20220701083603 75 293 0.0 0.0 0.00 0.00 0.00 61 1013.9
20220701083503 75 90 0.0 2.0 0.00 0.00 0.00 61 1013.9
20220701083402 75 68 0.0 2.0 0.00 0.00 0.00 61 1013.9
20220701083302 75 68 0.0 2.0 0.00 0.00 0.00 61 1013.9
20220701083203 75 248 0.0 2.0 0.00 0.00 0.00 61 1013.9
20220701083103 75 248 1.0 2.0 0.00 0.00 0.00 61 1013.9
20220701082902 76 90 1.0 1.0 0.00 0.00 0.00 61 1013.9
20220701082703 76 248 0.0 3.0 0.00 0.00 0.00 61 1013.9
20220701082603 76 68 0.0 3.0 0.00 0.00 0.00 61 1013.9
20220701082502 76 248 0.0 3.0 0.00 0.00 0.00 61 1013.9
20220701082402 76 248 2.0 3.0 0.00 0.00 0.00 61 1013.9
20220701082302 76 225 3.0 3.0 0.00 0.00 0.00 61 1014.2
20220701082202 76 225 0.0 1.0 0.00 0.00 0.00 61 1014.2
20220701082002 76 68 0.0 1.0 0.00 0.00 0.00 61 1013.9
20220701081803 76 248 0.0 1.0 0.00 0.00 0.00 61 1013.9
20220701081702 76 270 0.0 1.0 0.00 0.00 0.00 61 1013.9
20220701081604 76 90 1.0 3.0 0.00 0.00 0.00 61 1013.9
20220701081502 76 90 0.0 3.0 0.00 0.00 0.00 61 1013.9
20220701081403 76 68 1.0 3.0 0.00 0.00 0.00 61 1013.9
20220701081303 76 68 1.0 3.0 0.00 0.00 0.00 63 1013.9
20220701081103 76 270 3.0 3.0 0.00 0.00 0.00 63 1014.2
20220701080902 76 248 0.0 3.0 0.00 0.00 0.00 63 1014.2
20220701080802 76 293 2.0 4.0 0.00 0.00 0.00 63 1014.2
20220701080703 76 248 3.0 4.0 0.00 0.00 0.00 63 1014.2
20220701080603 76 248 0.0 4.0 0.00 0.00 0.00 63 1014.2
20220701080503 76 293 0.0 4.0 0.00 0.00 0.00 63 1014.2
20220701080402 76 293 2.0 4.0 0.00 0.00 0.00 61 1014.2
20220701080203 77 45 0.0 0.0 0.00 0.00 0.00 63 1014.2
20220701080002 76 90 0.0 2.0 0.00 0.00 0.00 63 1014.2
20220701075902 77 180 0.0 2.0 0.00 0.00 0.00 63 1013.9
20220701075803 77 225 0.0 3.0 0.00 0.00 0.00 63 1013.9
20220701075702 76 225 0.0 3.0 0.00 0.00 0.00 63 1013.9
20220701075602 76 270 2.0 3.0 0.00 0.00 0.00 63 1013.9
20220701075503 76 270 0.0 4.0 0.00 0.00 0.00 63 1013.9
20220701075302 76 270 3.0 4.0 0.00 0.00 0.00 63 1013.5
20220701075102 76 270 3.0 4.0 0.00 0.00 0.00 63 1013.5
20220701074902 76 293 1.0 4.0 0.00 0.00 0.00 63 1013.5
20220701074703 76 315 2.0 4.0 0.00 0.00 0.00 63 1013.5
20220701074602 76 293 2.0 4.0 0.00 0.00 0.00 63 1013.5
20220701074502 76 203 4.0 4.0 0.00 0.00 0.00 63 1013.5
20220701074403 76 203 3.0 3.0 0.00 0.00 0.00 63 1013.5
20220701074203 77 270 1.0 1.0 0.00 0.00 0.00 63 1013.5
20220701074003 77 270 1.0 2.0 0.00 0.00 0.00 63 1013.5
20220701073803 77 315 1.0 2.0 0.00 0.00 0.00 63 1013.5
20220701073703 77 23 2.0 2.0 0.00 0.00 0.00 63 1013.5
20220701073602 77 180 2.0 2.0 0.00 0.00 0.00 63 1013.5
20220701073503 77 180 0.0 2.0 0.00 0.00 0.00 63 1013.5
20220701073302 77 315 1.0 2.0 0.00 0.00 0.00 63 1013.5
20220701073103 77 68 2.0 3.0 0.00 0.00 0.00 63 1013.5
20220701072902 77 270 1.0 3.0 0.00 0.00 0.00 63 1013.5
20220701072802 77 270 2.0 3.0 0.00 0.00 0.00 63 1013.5
20220701072703 77 270 3.0 3.0 0.00 0.00 0.00 63 1013.2
20220701072602 77 270 3.0 3.0 0.00 0.00 0.00 63 1013.2
20220701072403 77 270 3.0 3.0 0.00 0.00 0.00 63 1013.2
20220701072203 77 270 2.0 3.0 0.00 0.00 0.00 65 1013.2
20220701072002 77 0 2.0 5.0 0.00 0.00 0.00 65 1013.2
20220701071903 77 45 2.0 5.0 0.00 0.00 0.00 65 1013.2
20220701071802 77 315 1.0 5.0 0.00 0.00 0.00 65 1013.2
20220701071702 77 315 2.0 5.0 0.00 0.00 0.00 65 1013.2
20220701071503 77 45 2.0 5.0 0.00 0.00 0.00 65 1013.2
20220701071302 77 45 2.0 5.0 0.00 0.00 0.00 65 1012.9
20220701071103 77 293 3.0 5.0 0.00 0.00 0.00 65 1013.2
20220701071003 77 45 3.0 5.0 0.00 0.00 0.00 65 1013.2
20220701070903 77 23 5.0 5.0 0.00 0.00 0.00 65 1013.2
20220701070803 77 23 2.0 4.0 0.00 0.00 0.00 65 1013.2
20220701070603 77 270 4.0 4.0 0.00 0.00 0.00 65 1013.2
20220701070403 77 270 2.0 5.0 0.00 0.00 0.00 65 1013.2
20220701070202 77 23 3.0 5.0 0.00 0.00 0.00 65 1013.2
20220701070103 77 338 5.0 5.0 0.00 0.00 0.00 65 1013.2
20220701070004 77 293 5.0 5.0 0.00 0.00 0.00 65 1013.2
20220701065902 77 293 4.0 5.0 0.00 0.00 0.00 65 1013.2
20220701065703 77 68 2.0 5.0 0.00 0.00 0.00 65 1013.2
20220701065502 77 293 2.0 5.0 0.00 0.00 0.00 66 1013.2
20220701065302 77 248 2.0 3.0 0.00 0.00 0.00 66 1013.2
20220701065202 77 113 3.0 3.0 0.00 0.00 0.00 66 1013.2
20220701065003 77 270 2.0 5.0 0.00 0.00 0.00 68 1013.2
20220701064802 77 293 2.0 5.0 0.00 0.00 0.00 68 1013.2
20220701064703 77 293 4.0 5.0 0.00 0.00 0.00 69 1013.2
20220701064602 77 45 5.0 5.0 0.00 0.00 0.00 69 1013.2
20220701064502 77 45 3.0 3.0 0.00 0.00 0.00 70 1013.2
20220701064402 77 293 3.0 3.0 0.00 0.00 0.00 70 1012.9
20220701064302 77 293 2.0 3.0 0.00 0.00 0.00 70 1013.2
20220701064103 77 225 3.0 4.0 0.00 0.00 0.00 70 1013.2
20220701063903 77 113 2.0 4.0 0.00 0.00 0.00 70 1012.9
20220701063803 77 23 3.0 4.0 0.00 0.00 0.00 70 1012.9
20220701063703 77 270 4.0 4.0 0.00 0.00 0.00 70 1013.2
20220701063603 77 270 3.0 3.0 0.00 0.00 0.00 71 1013.2
20220701063502 77 248 1.0 3.0 0.00 0.00 0.00 71 1013.2
20220701063403 77 248 2.0 3.0 0.00 0.00 0.00 71 1013.2
20220701063203 77 45 1.0 3.0 0.00 0.00 0.00 71 1013.2
20220701063002 77 270 3.0 4.0 0.00 0.00 0.00 71 1013.2
20220701062903 78 248 2.0 4.0 0.00 0.00 0.00 71 1013.2
20220701062803 78 338 2.0 4.0 0.00 0.00 0.00 71 1012.9
20220701062702 78 338 4.0 4.0 0.00 0.00 0.00 71 1013.2
20220701062602 78 248 3.0 3.0 0.00 0.00 0.00 71 1012.9
20220701062502 78 248 2.0 2.0 0.00 0.00 0.00 71 1012.9
20220701062303 78 338 1.0 3.0 0.00 0.00 0.00 71 1012.9
20220701062102 78 270 0.0 3.0 0.00 0.00 0.00 71 1012.9
20220701062002 78 293 2.0 3.0 0.00 0.00 0.00 71 1012.9
20220701061902 78 293 3.0 3.0 0.00 0.00 0.00 71 1012.9
20220701061803 79 293 2.0 2.0 0.00 0.00 0.00 71 1012.9
20220701061703 79 225 2.0 2.0 0.00 0.00 0.00 71 1012.9
20220701061604 78 225 1.0 2.0 0.00 0.00 0.00 71 1012.9
20220701061403 79 293 2.0 3.0 0.00 0.00 0.00 70 1012.9
20220701061204 79 270 2.0 3.0 0.00 0.00 0.00 70 1012.9
20220701061102 79 270 3.0 5.0 0.00 0.00 0.00 70 1012.9
20220701061003 79 293 1.0 5.0 0.00 0.00 0.00 70 1012.9
20220701060902 79 293 2.0 5.0 0.00 0.00 0.00 70 1012.9
20220701060803 79 293 2.0 5.0 0.00 0.00 0.00 70 1012.5
20220701060703 79 293 3.0 5.0 0.00 0.00 0.00 70 1012.9
20220701060502 79 293 4.0 4.0 0.00 0.00 0.00 70 1012.9
20220701060303 79 248 3.0 3.0 0.00 0.00 0.00 70 1012.9
20220701060202 79 270 2.0 3.0 0.00 0.00 0.00 70 1012.9
20220701060103 79 225 0.0 3.0 0.00 0.00 0.00 70 1012.9
20220701060003 79 225 1.0 7.0 0.00 0.00 0.00 70 1012.5
20220701055904 79 225 2.0 7.0 0.00 0.00 0.00 70 1012.9
20220701055803 79 225 1.0 7.0 0.00 0.00 0.00 70 1012.5
20220701055703 79 293 2.0 7.0 0.00 0.00 0.00 70 1012.5
20220701055603 79 293 7.0 7.0 0.00 0.00 0.00 70 1012.5
20220701055303 79 270 1.0 2.0 0.00 0.00 0.00 70 1012.5
20220701055203 79 270 1.0 2.0 0.00 0.00 0.00 70 1012.5
20220701055003 79 45 2.0 4.0 0.00 0.00 0.00 70 1012.2
20220701054803 79 23 1.0 4.0 0.00 0.00 0.00 70 1012.5
20220701054703 79 158 2.0 4.0 0.00 0.00 0.00 70 1012.2
20220701054603 79 225 4.0 5.0 0.00 0.00 0.00 70 1012.2
20220701054502 79 225 2.0 5.0 0.00 0.00 0.00 70 1012.2
20220701054402 79 270 4.0 5.0 0.00 0.00 0.00 70 1012.5
20220701054302 79 270 2.0 5.0 0.00 0.00 0.00 70 1012.5
20220701054103 79 270 5.0 5.0 0.00 0.00 0.00 70 1012.2
20220701053902 80 225 1.0 4.0 0.00 0.00 0.00 70 1012.2
20220701053802 79 293 2.0 4.0 0.00 0.00 0.00 70 1012.5
20220701053702 79 315 2.0 4.0 0.00 0.00 0.00 70 1012.5
20220701053602 79 315 4.0 4.0 0.00 0.00 0.00 70 1012.5
20220701053502 79 293 3.0 3.0 0.00 0.00 0.00 70 1012.5
20220701053402 79 293 2.0 2.0 0.00 0.00 0.00 70 1012.2
20220701053203 80 293 2.0 2.0 0.00 0.00 0.00 70 1012.2
20220701053003 80 270 1.0 1.0 0.00 0.00 0.00 70 1012.5
20220701052902 80 203 1.0 1.0 0.00 0.00 0.00 70 1012.5
20220701052802 80 270 1.0 1.0 0.00 0.00 0.00 70 1012.2
20220701052502 80 270 0.0 1.0 0.00 0.00 0.00 70 1012.5
20220701052303 80 248 0.0 2.0 0.00 0.00 0.00 70 1012.5
20220701052102 80 270 0.0 2.0 0.00 0.00 0.00 70 1012.5
20220701051904 81 270 2.0 2.0 0.00 0.00 0.00 70 1012.5
20220701051802 81 270 2.0 2.0 0.00 0.00 0.00 70 1012.2
20220701051702 81 293 2.0 2.0 0.00 0.00 0.00 70 1012.2
20220701051602 81 293 0.0 2.0 0.00 0.00 0.00 70 1012.5
20220701051202 81 270 1.0 2.0 0.00 0.00 0.00 70 1012.5
20220701051102 81 90 0.0 2.0 0.00 0.00 0.00 69 1012.2
20220701051002 81 0 1.0 2.0 0.00 0.00 0.00 69 1012.5
20220701050902 81 0 1.0 2.0 0.00 0.00 0.00 69 1012.2
20220701050802 81 203 2.0 2.0 0.00 0.00 0.00 69 1012.5
20220701050702 81 203 1.0 2.0 0.00 0.00 0.00 69 1012.2
20220701050503 81 68 2.0 2.0 0.00 0.00 0.00 69 1012.2
20220701050302 81 248 1.0 2.0 0.00 0.00 0.00 69 1012.2
20220701050203 81 270 1.0 1.0 0.00 0.00 0.00 69 1012.2
20220701050102 81 270 1.0 2.0 0.00 0.00 0.00 69 1011.9
20220701050013 81 270 0.0 2.0 0.00 0.00 0.00 69 1012.2
20220701045903 81 270 1.0 2.0 0.00 0.00 0.00 69 1012.2
20220701045803 81 270 0.0 2.0 0.00 0.00 0.00 69 1012.2
20220701045603 81 293 2.0 2.0 0.00 0.00 0.00 69 1011.9
20220701045404 81 225 0.0 2.0 0.00 0.00 0.00 69 1011.9
20220701045103 81 270 1.0 2.0 0.00 0.00 0.00 69 1011.9
20220701045002 81 270 2.0 2.0 0.00 0.00 0.00 69 1011.9
20220701044903 81 270 0.0 1.0 0.00 0.00 0.00 69 1011.9
20220701044702 81 270 1.0 1.0 0.00 0.00 0.00 69 1011.9
20220701044403 81 270 0.0 0.0 0.00 0.00 0.00 68 1011.9
20220701044302 81 248 0.0 0.0 0.00 0.00 0.00 68 1011.9
20220701044102 82 248 0.0 0.0 0.00 0.00 0.00 68 1011.9
20220701043903 82 248 0.0 0.0 0.00 0.00 0.00 66 1011.9
20220701043603 82 248 0.0 0.0 0.00 0.00 0.00 66 1011.9
20220701043502 82 225 0.0 0.0 0.00 0.00 0.00 66 1011.9
20220701043402 82 225 0.0 0.0 0.00 0.00 0.00 66 1011.5
20220701043202 82 203 0.0 0.0 0.00 0.00 0.00 66 1011.5
20220701043003 82 248 0.0 0.0 0.00 0.00 0.00 66 1011.9
20220701042703 82 248 0.0 0.0 0.00 0.00 0.00 66 1011.5
20220701042503 82 90 0.0 0.0 0.00 0.00 0.00 66 1011.5
20220701042203 82 270 0.0 0.0 0.00 0.00 0.00 66 1011.5
20220701041903 82 270 0.0 0.0 0.00 0.00 0.00 66 1011.5
20220701041702 82 338 0.0 0.0 0.00 0.00 0.00 66 1011.5
20220701041503 82 270 0.0 0.0 0.00 0.00 0.00 66 1011.5
20220701041403 82 248 0.0 0.0 0.00 0.00 0.00 65 1011.5
20220701041203 82 225 0.0 0.0 0.00 0.00 0.00 65 1011.5
20220701041002 82 203 0.0 0.0 0.00 0.00 0.00 65 1011.5
20220701040803 82 248 0.0 0.0 0.00 0.00 0.00 65 1011.5
20220701040503 82 270 0.0 0.0 0.00 0.00 0.00 65 1011.5
20220701040302 82 248 0.0 0.0 0.00 0.00 0.00 65 1011.5
20220701040203 82 225 0.0 0.0 0.00 0.00 0.00 65 1011.9
20220701035503 82 225 0.0 0.0 0.00 0.00 0.00 65 1011.5
20220701035302 82 248 0.0 0.0 0.00 0.00 0.00 65 1011.5
20220701035103 82 203 0.0 0.0 0.00 0.00 0.00 65 1011.5
20220701034404 83 225 0.0 0.0 0.00 0.00 0.00 65 1011.5
20220701034202 83 248 0.0 0.0 0.00 0.00 0.00 65 1011.5
20220701034103 83 203 0.0 0.0 0.00 0.00 0.00 65 1011.5
20220701033903 83 225 0.0 0.0 0.00 0.00 0.00 65 1011.5
20220701033804 83 248 0.0 0.0 0.00 0.00 0.00 65 1011.5
20220701033702 83 248 0.0 0.0 0.00 0.00 0.00 65 1011.5
20220701033503 83 203 0.0 0.0 0.00 0.00 0.00 65 1011.5
20220701033302 83 225 0.0 0.0 0.00 0.00 0.00 65 1011.5
20220701033202 83 225 0.0 0.0 0.00 0.00 0.00 65 1011.2
20220701033104 83 203 0.0 0.0 0.00 0.00 0.00 65 1011.2
20220701032903 83 203 0.0 0.0 0.00 0.00 0.00 63 1011.2
20220701032704 83 225 0.0 0.0 0.00 0.00 0.00 65 1011.2
20220701032603 83 248 0.0 0.0 0.00 0.00 0.00 65 1011.2
20220701032502 83 225 0.0 0.0 0.00 0.00 0.00 65 1011.5
20220701032403 83 225 0.0 0.0 0.00 0.00 0.00 65 1011.2
20220701032303 83 158 0.0 0.0 0.00 0.00 0.00 65 1011.5
20220701032203 83 158 0.0 0.0 0.00 0.00 0.00 65 1011.2
20220701032002 84 248 0.0 0.0 0.00 0.00 0.00 65 1011.2
20220701031802 84 248 0.0 0.0 0.00 0.00 0.00 63 1011.5
20220701031703 84 225 0.0 0.0 0.00 0.00 0.00 63 1011.2
20220701031603 84 225 0.0 0.0 0.00 0.00 0.00 63 1011.5
20220701031303 84 225 0.0 0.0 0.00 0.00 0.00 63 1011.5
20220701031102 84 203 0.0 0.0 0.00 0.00 0.00 63 1011.5
20220701030903 84 203 0.0 0.0 0.00 0.00 0.00 63 1011.5
20220701030802 84 225 0.0 0.0 0.00 0.00 0.00 63 1011.5
20220701030702 84 203 0.0 1.0 0.00 0.00 0.00 63 1011.5
20220701030602 84 203 0.0 1.0 0.00 0.00 0.00 63 1011.5
20220701030502 84 225 0.0 1.0 0.00 0.00 0.00 63 1011.5
20220701030302 85 225 0.0 1.0 0.00 0.00 0.00 61 1011.2
20220701030202 85 225 0.0 0.0 0.00 0.00 0.00 61 1011.2
20220701025802 85 203 0.0 0.0 0.00 0.00 0.00 61 1011.2
20220701025603 86 203 0.0 0.0 0.00 0.00 0.00 60 1011.2
20220701025403 86 203 0.0 0.0 0.00 0.00 0.00 60 1010.8
20220701025304 86 203 0.0 0.0 0.00 0.00 0.00 60 1011.2
20220701025103 86 203 0.0 0.0 0.00 0.00 0.00 60 1010.8
20220701024903 86 225 0.0 0.0 0.00 0.00 0.00 60 1011.2
20220701024702 86 225 0.0 0.0 0.00 0.00 0.00 59 1011.2
20220701024503 86 180 0.0 0.0 0.00 0.00 0.00 59 1010.8
20220701024403 87 203 0.0 0.0 0.00 0.00 0.00 58 1011.2
20220701024103 87 203 0.0 0.0 0.00 0.00 0.00 58 1010.8
20220701024003 87 203 0.0 0.0 0.00 0.00 0.00 59 1010.8
20220701023802 87 225 0.0 0.0 0.00 0.00 0.00 59 1010.8
20220701023602 87 203 0.0 1.0 0.00 0.00 0.00 59 1010.8
20220701023503 87 225 0.0 1.0 0.00 0.00 0.00 59 1010.8
20220701023402 87 270 0.0 1.0 0.00 0.00 0.00 59 1010.8
20220701023302 87 270 1.0 1.0 0.00 0.00 0.00 59 1010.8
20220701023202 87 203 1.0 1.0 0.00 0.00 0.00 59 1010.8
20220701023103 87 203 0.0 0.0 0.00 0.00 0.00 59 1010.8
20220701022902 88 248 0.0 0.0 0.00 0.00 0.00 58 1010.8
20220701022703 87 203 0.0 0.0 0.00 0.00 0.00 59 1010.8
20220701022602 88 180 0.0 0.0 0.00 0.00 0.00 59 1010.8
20220701022403 88 203 0.0 1.0 0.00 0.00 0.00 59 1010.8
20220701022302 88 270 0.0 1.0 0.00 0.00 0.00 59 1010.8
20220701022202 88 270 0.0 1.0 0.00 0.00 0.00 59 1010.8
20220701022003 88 225 1.0 1.0 0.00 0.00 0.00 59 1010.8
20220701021802 88 225 0.0 1.0 0.00 0.00 0.00 59 1010.5
20220701021702 88 270 1.0 1.0 0.00 0.00 0.00 59 1010.8
20220701021603 88 248 0.0 1.0 0.00 0.00 0.00 59 1010.8
20220701021502 88 248 0.0 2.0 0.00 0.00 0.00 59 1010.5
20220701021402 88 203 0.0 2.0 0.00 0.00 0.00 59 1010.5
20220701021303 88 203 0.0 2.0 0.00 0.00 0.00 59 1010.8
20220701021102 88 293 1.0 2.0 0.00 0.00 0.00 59 1010.8
20220701020902 89 270 0.0 1.0 0.00 0.00 0.00 56 1010.8
20220701020802 89 248 0.0 1.0 0.00 0.00 0.00 56 1010.8
20220701020703 89 203 1.0 1.0 0.00 0.00 0.00 56 1010.8
20220701020502 89 203 0.0 1.0 0.00 0.00 0.00 55 1010.8
20220701020402 89 203 0.0 1.0 0.00 0.00 0.00 55 1010.8
20220701020302 89 180 1.0 1.0 0.00 0.00 0.00 55 1010.8
20220701020202 89 180 0.0 0.0 0.00 0.00 0.00 55 1010.8
20220701020103 89 225 0.0 0.0 0.00 0.00 0.00 55 1010.8
20220701020002 89 225 0.0 0.0 0.00 0.00 0.00 54 1010.5
20220701015902 89 203 0.0 0.0 0.00 0.00 0.00 54 1010.5
20220701015803 90 203 0.0 0.0 0.00 0.00 0.00 51 1010.8
20220701015604 90 203 0.0 0.0 0.00 0.00 0.00 51 1010.5
20220701015403 90 203 0.0 0.0 0.00 0.00 0.00 53 1010.8
20220701015303 90 203 0.0 0.0 0.00 0.00 0.00 53 1010.8
20220701015203 90 203 0.0 0.0 0.00 0.00 0.00 53 1010.5
20220701015102 90 203 0.0 0.0 0.00 0.00 0.00 54 1010.8
20220701015003 90 203 0.0 0.0 0.00 0.00 0.00 54 1010.5
20220701014902 91 203 0.0 0.0 0.00 0.00 0.00 54 1010.8
20220701014503 91 203 0.0 0.0 0.00 0.00 0.00 55 1010.8
20220701014303 91 225 0.0 0.0 0.00 0.00 0.00 55 1010.8
20220701014203 91 225 0.0 0.0 0.00 0.00 0.00 54 1010.8
20220701014103 91 180 0.0 0.0 0.00 0.00 0.00 54 1010.8
20220701014002 91 180 0.0 0.0 0.00 0.00 0.00 54 1010.5
20220701013803 91 248 0.0 0.0 0.00 0.00 0.00 55 1010.5
20220701013603 91 270 0.0 0.0 0.00 0.00 0.00 55 1010.5
20220701013404 91 248 0.0 0.0 0.00 0.00 0.00 55 1010.5
20220701013303 91 248 0.0 0.0 0.00 0.00 0.00 55 1010.5
20220701013203 91 225 0.0 0.0 0.00 0.00 0.00 55 1010.5
20220701013103 90 225 0.0 0.0 0.00 0.00 0.00 55 1010.5
20220701012902 91 270 0.0 0.0 0.00 0.00 0.00 55 1010.5
20220701012702 91 270 0.0 0.0 0.00 0.00 0.00 54 1010.5
20220701012503 92 248 0.0 0.0 0.00 0.00 0.00 53 1010.5
20220701012402 91 225 0.0 0.0 0.00 0.00 0.00 53 1010.5
20220701012303 91 225 0.0 0.0 0.00 0.00 0.00 53 1010.8
20220701012203 91 225 0.0 0.0 0.00 0.00 0.00 53 1010.5
20220701012002 92 225 0.0 0.0 0.00 0.00 0.00 50 1010.5
20220701011803 92 203 0.0 0.0 0.00 0.00 0.00 50 1010.5
20220701011603 92 203 0.0 0.0 0.00 0.00 0.00 50 1010.5
20220701011503 92 225 0.0 0.0 0.00 0.00 0.00 50 1010.5
20220701011403 92 270 0.0 0.0 0.00 0.00 0.00 50 1010.5
20220701011303 93 270 0.0 0.0 0.00 0.00 0.00 50 1010.5
20220701010902 93 225 0.0 0.0 0.00 0.00 0.00 50 1010.5
20220701010703 93 225 0.0 0.0 0.00 0.00 0.00 50 1010.5
20220701010603 92 225 0.0 0.0 0.00 0.00 0.00 50 1010.5
20220701010502 92 248 0.0 0.0 0.00 0.00 0.00 50 1010.5
20220701010403 93 248 0.0 0.0 0.00 0.00 0.00 50 1010.5
20220701010003 93 248 0.0 0.0 0.00 0.00 0.00 48 1010.5
20220701005902 93 248 0.0 0.0 0.00 0.00 0.00 48 1010.5
20220701005703 93 270 0.0 0.0 0.00 0.00 0.00 48 1010.5
20220701005603 93 248 0.0 0.0 0.00 0.00 0.00 48 1010.5
20220701005503 93 248 0.0 0.0 0.00 0.00 0.00 46 1010.5
20220701005302 93 293 0.0 0.0 0.00 0.00 0.00 46 1010.2
20220701005102 93 225 0.0 1.0 0.00 0.00 0.00 46 1010.2
20220701005002 94 248 0.0 1.0 0.00 0.00 0.00 46 1010.2
20220701004902 94 270 0.0 1.0 0.00 0.00 0.00 46 1010.2
20220701004803 94 270 1.0 1.0 0.00 0.00 0.00 45 1010.2
20220701004703 94 225 1.0 1.0 0.00 0.00 0.00 45 1010.2
20220701004603 94 225 0.0 0.0 0.00 0.00 0.00 45 1010.2
20220701004503 94 180 0.0 0.0 0.00 0.00 0.00 45 1010.2
20220701004403 94 180 0.0 0.0 0.00 0.00 0.00 45 1010.5
20220701004303 94 203 0.0 0.0 0.00 0.00 0.00 45 1010.2
20220701004203 94 203 0.0 0.0 0.00 0.00 0.00 45 1010.2
20220701004102 94 180 0.0 0.0 0.00 0.00 0.00 45 1010.2
20220701004003 94 180 0.0 0.0 0.00 0.00 0.00 45 1010.5
20220701003802 94 180 0.0 0.0 0.00 0.00 0.00 48 1010.2
20220701003603 94 203 0.0 0.0 0.00 0.00 0.00 46 1010.2
20220701003403 93 203 0.0 0.0 0.00 0.00 0.00 50 1010.2
20220701003203 93 203 0.0 0.0 0.00 0.00 0.00 50 1010.2
20220701003108 93 203 0.0 0.0 0.00 0.00 0.00 49 1010.2
20220701002902 94 203 0.0 0.0 0.00 0.00 0.00 49 1010.2
20220701002703 94 203 0.0 0.0 0.00 0.00 0.00 48 1010.2
20220701002502 94 203 0.0 0.0 0.00 0.00 0.00 48 1010.2
20220701002303 94 203 0.0 0.0 0.00 0.00 0.00 49 1010.2
20220701002203 93 203 0.0 0.0 0.00 0.00 0.00 48 1010.2
20220701002004 94 180 0.0 0.0 0.00 0.00 0.00 48 1010.2
20220701001802 94 203 0.0 1.0 0.00 0.00 0.00 46 1010.2
20220701001603 94 158 0.0 1.0 0.00 0.00 0.00 46 1010.2
20220701001503 94 158 1.0 1.0 0.00 0.00 0.00 46 1010.2
20220701001403 94 203 0.0 2.0 0.00 0.00 0.00 46 1010.2
20220701001304 94 203 0.0 2.0 0.00 0.00 0.00 45 1010.2
20220701001103 93 225 0.0 2.0 0.00 0.00 0.00 45 1010.2
20220701000904 93 23 2.0 2.0 0.00 0.00 0.00 46 1010.2
20220701000803 93 203 0.0 0.0 0.00 0.00 0.00 46 1010.2
20220701000702 93 90 0.0 0.0 0.00 0.00 0.00 46 1010.2
20220701000603 92 90 0.0 0.0 0.00 0.00 0.00 48 1010.2
20220701000503 92 113 0.0 0.0 0.00 0.00 0.00 48 1010.2
20220701000403 92 113 0.0 1.0 0.00 0.00 0.00 48 1010.5
20220701000203 92 158 0.0 1.0 0.00 0.00 0.00 48 1010.5
20220701000004 92 203 0.0 1.0 0.00 0.00 0.00 48 1010.2
20220630235903 92 338 1.0 1.0 0.00 0.00 0.00 48 1010.2
20220630235603 92 90 1.0 2.0 0.00 0.00 0.00 48 1010.2
20220630235502 92 90 0.0 2.0 0.00 0.00 0.00 48 1010.5
20220630235303 92 293 1.0 2.0 0.00 0.00 0.00 48 1010.5
20220630235102 92 315 2.0 2.0 0.00 0.00 0.00 48 1010.2
20220630235004 92 0 2.0 2.0 0.00 0.00 0.00 48 1010.2
20220630234903 92 45 0.0 2.0 0.00 0.00 0.00 48 1010.2
20220630234802 91 45 0.0 0.0 0.00 0.00 0.00 50 1010.2
20220630234703 91 203 0.0 0.0 0.00 0.00 0.00 50 1009.8
20220630234602 92 203 0.0 0.0 0.00 0.00 0.00 50 1010.2
20220630234203 92 158 0.0 1.0 0.00 0.00 0.00 49 1010.2
20220630234103 92 180 0.0 1.0 0.00 0.00 0.00 50 1010.2
20220630234003 92 113 1.0 1.0 0.00 0.00 0.00 50 1010.2
20220630233903 92 113 0.0 0.0 0.00 0.00 0.00 50 1010.2
20220630233803 92 203 0.0 1.0 0.00 0.00 0.00 50 1010.2
20220630233703 92 203 0.0 1.0 0.00 0.00 0.00 49 1010.2
20220630233503 92 158 0.0 1.0 0.00 0.00 0.00 49 1010.2
20220630233302 93 113 1.0 1.0 0.00 0.00 0.00 46 1010.2
20220630233203 93 180 1.0 1.0 0.00 0.00 0.00 46 1010.2
20220630233103 93 135 1.0 2.0 0.00 0.00 0.00 46 1009.8
20220630233004 93 135 1.0 2.0 0.00 0.00 0.00 48 1009.8
20220630232903 93 180 1.0 2.0 0.00 0.00 0.00 48 1009.8
20220630232802 93 180 0.0 2.0 0.00 0.00 0.00 48 1009.8
20220630232703 93 203 2.0 2.0 0.00 0.00 0.00 48 1009.8
20220630232503 93 203 0.0 2.0 0.00 0.00 0.00 49 1009.8
20220630232403 93 203 1.0 2.0 0.00 0.00 0.00 49 1010.2
20220630232303 93 135 1.0 2.0 0.00 0.00 0.00 49 1009.8
20220630232203 93 135 2.0 2.0 0.00 0.00 0.00 49 1010.2
20220630232003 93 203 0.0 1.0 0.00 0.00 0.00 49 1010.2
20220630231803 93 113 1.0 1.0 0.00 0.00 0.00 49 1010.2
20220630231702 93 135 0.0 2.0 0.00 0.00 0.00 49 1010.2
20220630231602 93 203 0.0 2.0 0.00 0.00 0.00 49 1010.2
20220630231503 93 203 1.0 2.0 0.00 0.00 0.00 48 1010.2
20220630231402 93 270 1.0 2.0 0.00 0.00 0.00 48 1010.2
20220630231304 93 270 1.0 2.0 0.00 0.00 0.00 49 1010.2
20220630231103 93 225 1.0 1.0 0.00 0.00 0.00 46 1010.2
20220630230902 93 225 0.0 2.0 0.00 0.00 0.00 48 1010.2
20220630230802 94 158 1.0 2.0 0.00 0.00 0.00 48 1010.2
20220630230702 94 225 0.0 2.0 0.00 0.00 0.00 48 1010.2
20220630230602 94 225 2.0 2.0 0.00 0.00 0.00 46 1010.2
20220630230503 94 135 2.0 2.0 0.00 0.00 0.00 46 1010.2
20220630230403 94 135 2.0 2.0 0.00 0.00 0.00 45 1010.2
20220630230203 95 113 1.0 2.0 0.00 0.00 0.00 45 1010.2
20220630230004 95 248 1.0 2.0 0.00 0.00 0.00 45 1010.2
20220630225903 95 158 0.0 1.0 0.00 0.00 0.00 45 1010.2
20220630225803 95 113 1.0 2.0 0.00 0.00 0.00 45 1010.2
20220630225602 95 113 1.0 2.0 0.00 0.00 0.00 45 1010.2
20220630225503 95 113 1.0 2.0 0.00 0.00 0.00 45 1010.5
20220630225303 96 270 2.0 2.0 0.00 0.00 0.00 45 1010.2
20220630225103 94 225 1.0 3.0 0.00 0.00 0.00 45 1010.2
20220630225002 95 113 2.0 3.0 0.00 0.00 0.00 46 1010.2
20220630224903 95 248 2.0 3.0 0.00 0.00 0.00 46 1010.5
20220630224802 95 248 2.0 3.0 0.00 0.00 0.00 45 1010.2
20220630224702 95 270 3.0 3.0 0.00 0.00 0.00 45 1010.2
20220630224602 96 270 0.0 1.0 0.00 0.00 0.00 45 1010.2
20220630224403 96 270 0.0 1.0 0.00 0.00 0.00 44 1010.2
20220630224204 97 180 1.0 1.0 0.00 0.00 0.00 45 1010.2
20220630224103 96 135 1.0 2.0 0.00 0.00 0.00 45 1010.2
20220630224003 96 180 1.0 2.0 0.00 0.00 0.00 45 1010.2
20220630223902 96 180 0.0 2.0 0.00 0.00 0.00 44 1010.2
20220630223802 96 248 0.0 3.0 0.00 0.00 0.00 44 1010.2
20220630223702 96 248 2.0 3.0 0.00 0.00 0.00 44 1010.2
20220630223502 96 158 2.0 3.0 0.00 0.00 0.00 45 1010.5
20220630223303 97 113 3.0 3.0 0.00 0.00 0.00 44 1010.2
20220630223203 97 45 1.0 3.0 0.00 0.00 0.00 44 1010.2
20220630223103 97 270 2.0 3.0 0.00 0.00 0.00 44 1010.2
20220630223004 97 270 1.0 3.0 0.00 0.00 0.00 44 1010.2
20220630222903 97 338 1.0 3.0 0.00 0.00 0.00 44 1010.2
20220630222702 96 338 3.0 4.0 0.00 0.00 0.00 44 1010.2
20220630222602 96 203 1.0 4.0 0.00 0.00 0.00 44 1010.2
20220630222502 96 135 3.0 4.0 0.00 0.00 0.00 44 1010.2
20220630222403 96 135 4.0 4.0 0.00 0.00 0.00 44 1010.2
20220630222304 96 135 2.0 4.0 0.00 0.00 0.00 44 1010.2
20220630222202 97 135 4.0 4.0 0.00 0.00 0.00 44 1010.2
20220630222003 96 248 2.0 3.0 0.00 0.00 0.00 44 1010.2
20220630221803 97 0 3.0 3.0 0.00 0.00 0.00 44 1010.2
20220630221703 97 203 3.0 3.0 0.00 0.00 0.00 44 1009.8
20220630221603 97 203 1.0 3.0 0.00 0.00 0.00 45 1009.8
20220630221403 97 225 2.0 3.0 0.00 0.00 0.00 45 1010.2
20220630221203 97 158 2.0 4.0 0.00 0.00 0.00 45 1009.8
20220630221102 96 225 1.0 4.0 0.00 0.00 0.00 45 1009.8
20220630221003 96 203 1.0 4.0 0.00 0.00 0.00 45 1009.8
20220630220903 97 203 4.0 4.0 0.00 0.00 0.00 46 1010.2
20220630220803 97 180 3.0 4.0 0.00 0.00 0.00 46 1010.2
20220630220702 96 180 1.0 4.0 0.00 0.00 0.00 46 1010.2
20220630220504 95 113 2.0 4.0 0.00 0.00 0.00 45 1009.8
20220630220302 95 180 4.0 4.0 0.00 0.00 0.00 46 1010.2
20220630220204 95 135 0.0 3.0 0.00 0.00 0.00 46 1009.8
20220630220103 95 180 1.0 3.0 0.00 0.00 0.00 46 1009.8
20220630220003 94 180 0.0 3.0 0.00 0.00 0.00 46 1009.8
20220630215902 94 180 1.0 3.0 0.00 0.00 0.00 46 1010.2
20220630215802 94 180 2.0 3.0 0.00 0.00 0.00 46 1009.8
20220630215603 94 113 0.0 1.0 0.00 0.00 0.00 48 1009.8
20220630215403 94 225 1.0 3.0 0.00 0.00 0.00 49 1009.8
20220630215303 93 135 0.0 3.0 0.00 0.00 0.00 48 1009.8
20220630215202 93 270 1.0 3.0 0.00 0.00 0.00 48 1009.8
20220630215103 94 270 3.0 3.0 0.00 0.00 0.00 45 1009.8
20220630215003 94 248 1.0 3.0 0.00 0.00 0.00 45 1009.8
20220630214903 94 248 2.0 3.0 0.00 0.00 0.00 45 1009.8
20220630214702 94 113 2.0 3.0 0.00 0.00 0.00 45 1009.8
20220630214504 94 203 2.0 4.0 0.00 0.00 0.00 46 1009.8
20220630214403 94 270 2.0 4.0 0.00 0.00 0.00 45 1009.8
20220630214303 94 158 2.0 4.0 0.00 0.00 0.00 45 1009.8
20220630214203 94 158 2.0 4.0 0.00 0.00 0.00 48 1009.8
20220630214103 94 293 4.0 4.0 0.00 0.00 0.00 48 1009.8
20220630214004 94 293 3.0 3.0 0.00 0.00 0.00 49 1009.8
20220630213802 93 203 2.0 2.0 0.00 0.00 0.00 46 1009.8
20220630213602 93 180 1.0 2.0 0.00 0.00 0.00 46 1010.2
20220630213403 93 158 1.0 4.0 0.00 0.00 0.00 46 1010.2
20220630213302 94 248 0.0 4.0 0.00 0.00 0.00 45 1009.8
20220630213102 94 270 4.0 4.0 0.00 0.00 0.00 45 1009.8
20220630212902 94 158 2.0 4.0 0.00 0.00 0.00 45 1009.8
20220630212703 95 113 1.0 5.0 0.00 0.00 0.00 44 1009.8
20220630212602 94 113 2.0 5.0 0.00 0.00 0.00 44 1009.8
20220630212502 94 68 4.0 5.0 0.00 0.00 0.00 44 1009.8
20220630212403 95 68 5.0 5.0 0.00 0.00 0.00 44 1009.8
20220630212303 95 293 4.0 4.0 0.00 0.00 0.00 44 1009.8
20220630212203 95 293 3.0 3.0 0.00 0.00 0.00 44 1009.8
20220630212004 96 270 2.0 3.0 0.00 0.00 0.00 43 1009.8
20220630211803 96 113 2.0 5.0 0.00 0.00 0.00 43 1009.8
20220630211703 96 225 1.0 5.0 0.00 0.00 0.00 43 1009.8
20220630211603 96 225 2.0 5.0 0.00 0.00 0.00 43 1009.8
20220630211502 96 203 4.0 5.0 0.00 0.00 0.00 43 1009.8
20220630211404 96 270 5.0 5.0 0.00 0.00 0.00 43 1010.2
20220630211303 97 270 2.0 2.0 0.00 0.00 0.00 43 1010.2
20220630211102 98 135 1.0 3.0 0.00 0.00 0.00 44 1010.2
20220630210903 96 113 2.0 4.0 0.00 0.00 0.00 44 1010.2
20220630210802 96 113 3.0 4.0 0.00 0.00 0.00 44 1010.2
20220630210702 96 158 3.0 4.0 0.00 0.00 0.00 44 1010.2
20220630210603 96 158 3.0 4.0 0.00 0.00 0.00 44 1010.2
20220630210502 96 248 4.0 4.0 0.00 0.00 0.00 44 1010.2
20220630210403 96 248 3.0 3.0 0.00 0.00 0.00 45 1009.8
20220630210203 96 338 2.0 4.0 0.00 0.00 0.00 45 1010.2
20220630210004 95 203 2.0 4.0 0.00 0.00 0.00 44 1009.8
20220630205902 96 225 4.0 4.0 0.00 0.00 0.00 44 1009.8
20220630205803 96 225 3.0 4.0 0.00 0.00 0.00 44 1009.8
20220630205703 96 158 2.0 4.0 0.00 0.00 0.00 44 1010.2
20220630205604 96 158 2.0 4.0 0.00 0.00 0.00 44 1009.8
20220630205502 96 158 4.0 4.0 0.00 0.00 0.00 45 1010.2
20220630205303 95 158 1.0 4.0 0.00 0.00 0.00 45 1010.2
20220630205102 95 113 2.0 4.0 0.00 0.00 0.00 45 1010.2
20220630205003 95 90 4.0 4.0 0.00 0.00 0.00 44 1009.8
20220630204902 95 338 4.0 4.0 0.00 0.00 0.00 44 1010.2
20220630204802 95 338 2.0 4.0 0.00 0.00 0.00 45 1010.2
20220630204702 95 225 1.0 4.0 0.00 0.00 0.00 45 1010.2
20220630204602 94 225 3.0 6.0 0.00 0.00 0.00 45 1010.2
20220630204403 95 315 2.0 6.0 0.00 0.00 0.00 45 1010.2
20220630204302 95 23 3.0 6.0 0.00 0.00 0.00 45 1009.8
20220630204203 95 23 6.0 6.0 0.00 0.00 0.00 45 1010.2
20220630204103 95 248 3.0 4.0 0.00 0.00 0.00 45 1010.2
20220630204003 96 248 4.0 4.0 0.00 0.00 0.00 45 1010.2
20220630203802 95 90 2.0 4.0 0.00 0.00 0.00 45 1010.2
20220630203602 95 203 2.0 4.0 0.00 0.00 0.00 45 1010.2
20220630203502 96 45 4.0 4.0 0.00 0.00 0.00 44 1010.2
20220630203403 96 45 2.0 4.0 0.00 0.00 0.00 44 1010.2
20220630203304 97 248 3.0 3.0 0.00 0.00 0.00 43 1009.8
20220630203203 97 68 3.0 3.0 0.00 0.00 0.00 43 1009.8
20220630203103 96 68 2.0 3.0 0.00 0.00 0.00 44 1009.8
20220630202903 96 248 3.0 3.0 0.00 0.00 0.00 44 1010.2
20220630202703 96 113 3.0 5.0 0.00 0.00 0.00 44 1009.8
20220630202503 95 68 2.0 5.0 0.00 0.00 0.00 44 1009.8
20220630202402 96 225 4.0 5.0 0.00 0.00 0.00 43 1010.2
20220630202302 96 180 5.0 5.0 0.00 0.00 0.00 43 1009.8
20220630202203 95 180 3.0 5.0 0.00 0.00 0.00 44 1009.8
20220630202003 95 248 4.0 7.0 0.00 0.00 0.00 44 1009.8
20220630201803 95 270 5.0 7.0 0.00 0.00 0.00 43 1009.8
20220630201603 95 203 7.0 7.0 0.00 0.00 0.00 43 1009.8
20220630201502 96 90 3.0 4.0 0.00 0.00 0.00 43 1009.8
20220630201402 96 90 4.0 4.0 0.00 0.00 0.00 43 1009.8
20220630201304 95 90 4.0 4.0 0.00 0.00 0.00 45 1009.8
20220630201103 95 180 3.0 6.0 0.00 0.00 0.00 44 1009.8
20220630200903 95 113 3.0 6.0 0.00 0.00 0.00 44 1009.8
20220630200803 94 270 5.0 6.0 0.00 0.00 0.00 44 1009.8
20220630200702 94 270 6.0 6.0 0.00 0.00 0.00 44 1009.8
20220630200603 94 293 4.0 4.0 0.00 0.00 0.00 45 1009.5
20220630200502 94 180 3.0 4.0 0.00 0.00 0.00 45 1009.5
20220630200402 96 180 4.0 4.0 0.00 0.00 0.00 44 1009.5
20220630200204 96 270 2.0 7.0 0.00 0.00 0.00 44 1009.5
20220630200002 95 158 3.0 7.0 0.00 0.00 0.00 43 1009.5
20220630195902 95 293 3.0 7.0 0.00 0.00 0.00 43 1009.5
20220630195802 95 293 7.0 7.0 0.00 0.00 0.00 44 1009.5
20220630195602 95 113 2.0 5.0 0.00 0.00 0.00 43 1009.5
20220630195403 95 270 5.0 5.0 0.00 0.00 0.00 43 1009.5
20220630195204 95 203 4.0 7.0 0.00 0.00 0.00 44 1009.8
20220630195102 95 315 2.0 7.0 0.00 0.00 0.00 45 1009.8
20220630195002 95 225 2.0 7.0 0.00 0.00 0.00 45 1009.8
20220630194904 95 225 7.0 7.0 0.00 0.00 0.00 44 1009.5
20220630194703 95 270 4.0 4.0 0.00 0.00 0.00 45 1009.5
20220630194503 94 225 2.0 3.0 0.00 0.00 0.00 45 1009.5
20220630194403 94 203 2.0 4.0 0.00 0.00 0.00 45 1009.8
20220630194302 94 203 3.0 4.0 0.00 0.00 0.00 45 1009.8
20220630194202 94 68 3.0 4.0 0.00 0.00 0.00 45 1009.8
20220630194102 94 180 3.0 4.0 0.00 0.00 0.00 45 1009.8
20220630194003 94 180 4.0 4.0 0.00 0.00 0.00 45 1009.5
20220630193802 94 270 4.0 4.0 0.00 0.00 0.00 44 1009.8
20220630193603 94 113 1.0 5.0 0.00 0.00 0.00 45 1009.8
20220630193402 94 248 3.0 5.0 0.00 0.00 0.00 45 1009.8
20220630193303 93 180 3.0 5.0 0.00 0.00 0.00 45 1009.8
20220630193203 93 248 5.0 5.0 0.00 0.00 0.00 45 1009.8
20220630193104 93 248 4.0 4.0 0.00 0.00 0.00 45 1009.8
20220630192904 92 270 3.0 4.0 0.00 0.00 0.00 45 1009.8
20220630192702 92 90 2.0 4.0 0.00 0.00 0.00 45 1009.8
20220630192502 93 248 4.0 7.0 0.00 0.00 0.00 45 1010.2
20220630192402 93 225 4.0 8.0 0.00 0.00 0.00 45 1009.8
20220630192303 93 225 2.0 8.0 0.00 0.00 0.00 45 1010.2
20220630192203 94 225 4.0 8.0 0.00 0.00 0.00 44 1010.2
20220630192002 95 270 7.0 8.0 0.00 0.00 0.00 44 1009.8
20220630191803 95 113 2.0 7.0 0.00 0.00 0.00 45 1010.2
20220630191602 94 270 2.0 7.0 0.00 0.00 0.00 45 1010.2
20220630191502 95 225 3.0 7.0 0.00 0.00 0.00 45 1010.2
20220630191403 95 135 7.0 7.0 0.00 0.00 0.00 45 1010.2
20220630191303 95 135 3.0 3.0 0.00 0.00 0.00 45 1010.2
20220630191102 95 158 2.0 3.0 0.00 0.00 0.00 45 1010.2
20220630190903 95 293 2.0 3.0 0.00 0.00 0.00 45 1010.2
20220630190702 94 248 3.0 4.0 0.00 0.00 0.00 45 1010.2
20220630190602 93 23 2.0 4.0 0.00 0.00 0.00 45 1010.2
20220630190502 93 270 3.0 5.0 0.00 0.00 0.00 45 1010.2
20220630190403 93 270 3.0 5.0 0.00 0.00 0.00 45 1010.2
20220630190204 93 248 4.0 5.0 0.00 0.00 0.00 45 1010.2
20220630190003 93 68 5.0 5.0 0.00 0.00 0.00 45 1010.2
20220630185803 92 113 2.0 5.0 0.00 0.00 0.00 45 1010.2
20220630185602 91 225 5.0 5.0 0.00 0.00 0.00 48 1010.2
20220630185403 91 248 4.0 4.0 0.00 0.00 0.00 48 1010.2
20220630185204 91 270 2.0 4.0 0.00 0.00 0.00 48 1010.2
20220630185103 91 23 2.0 4.0 0.00 0.00 0.00 46 1010.2
20220630185004 91 270 3.0 5.0 0.00 0.00 0.00 46 1010.2
20220630184903 91 270 3.0 5.0 0.00 0.00 0.00 46 1010.2
20220630184703 91 158 4.0 5.0 0.00 0.00 0.00 48 1010.2
20220630184503 91 113 5.0 5.0 0.00 0.00 0.00 45 1010.2
20220630184303 91 113 1.0 4.0 0.00 0.00 0.00 46 1010.2
20220630184203 92 158 2.0 4.0 0.00 0.00 0.00 46 1010.2
20220630184102 92 158 4.0 4.0 0.00 0.00 0.00 46 1010.2
20220630184003 92 158 1.0 4.0 0.00 0.00 0.00 45 1010.2
20220630183802 93 113 3.0 4.0 0.00 0.00 0.00 45 1010.2
20220630183603 93 180 3.0 5.0 0.00 0.00 0.00 45 1010.2
20220630183403 93 90 4.0 5.0 0.00 0.00 0.00 45 1010.2
20220630183302 91 248 5.0 6.0 0.00 0.00 0.00 46 1010.2
20220630183102 91 270 4.0 6.0 0.00 0.00 0.00 46 1010.2
20220630182903 91 113 5.0 6.0 0.00 0.00 0.00 45 1010.2
20220630182704 91 248 2.0 7.0 0.00 0.00 0.00 46 1010.2
20220630182503 91 270 4.0 9.0 0.00 0.00 0.00 45 1010.2
20220630182403 91 270 7.0 9.0 0.00 0.00 0.00 45 1010.2
20220630182303 91 338 5.0 9.0 0.00 0.00 0.00 45 1010.2
20220630182202 91 338 4.0 9.0 0.00 0.00 0.00 45 1010.5
20220630182003 91 225 2.0 5.0 0.00 0.00 0.00 46 1010.5
20220630181802 91 135 5.0 5.0 0.00 0.00 0.00 46 1010.5
20220630181602 91 113 2.0 5.0 0.00 0.00 0.00 46 1010.5
20220630181502 91 248 4.0 5.0 0.00 0.00 0.00 45 1010.5
20220630181403 91 248 3.0 5.0 0.00 0.00 0.00 45 1010.5
20220630181203 92 248 5.0 5.0 0.00 0.00 0.00 45 1010.2
20220630181003 92 225 4.0 5.0 0.00 0.00 0.00 45 1010.2
20220630180903 92 293 2.0 5.0 0.00 0.00 0.00 46 1010.5
20220630180803 92 225 2.0 6.0 0.00 0.00 0.00 46 1010.5
20220630180703 91 225 3.0 8.0 0.00 0.00 0.00 46 1010.5
20220630180503 90 270 2.0 8.0 0.00 0.00 0.00 48 1010.5
20220630180302 90 225 6.0 8.0 0.00 0.00 0.00 46 1010.5
20220630180102 90 270 3.0 6.0 0.00 0.00 0.00 46 1010.5
20220630180003 90 135 4.0 7.0 0.00 0.00 0.00 46 1010.5
20220630175903 90 23 3.0 7.0 0.00 0.00 0.00 46 1010.5
20220630175802 90 23 3.0 7.0 0.00 0.00 0.00 46 1010.2
20220630175602 89 203 4.0 7.0 0.00 0.00 0.00 49 1010.2
20220630175403 89 270 4.0 5.0 0.00 0.00 0.00 49 1010.5
20220630175203 88 158 5.0 5.0 0.00 0.00 0.00 50 1010.5
20220630175003 89 225 3.0 5.0 0.00 0.00 0.00 49 1010.5
20220630174903 88 270 3.0 5.0 0.00 0.00 0.00 49 1010.5
20220630174803 88 203 4.0 6.0 0.00 0.00 0.00 49 1010.5
20220630174703 88 203 1.0 6.0 0.00 0.00 0.00 49 1010.5
20220630174502 88 113 5.0 6.0 0.00 0.00 0.00 49 1010.5
20220630174302 88 270 6.0 6.0 0.00 0.00 0.00 49 1010.5
20220630174202 88 113 4.0 4.0 0.00 0.00 0.00 49 1010.5
20220630174102 88 248 4.0 4.0 0.00 0.00 0.00 49 1010.5
20220630174003 88 248 3.0 4.0 0.00 0.00 0.00 49 1010.5
20220630173802 88 270 2.0 5.0 0.00 0.00 0.00 48 1010.5
20220630173603 88 338 4.0 5.0 0.00 0.00 0.00 48 1010.5
20220630173402 88 203 5.0 9.0 0.00 0.00 0.00 48 1010.5
20220630173303 88 90 5.0 9.0 0.00 0.00 0.00 46 1010.5
20220630173204 88 225 3.0 9.0 0.00 0.00 0.00 46 1010.5
20220630173104 88 225 4.0 9.0 0.00 0.00 0.00 46 1010.5
20220630172904 88 203 7.0 9.0 0.00 0.00 0.00 46 1010.5
20220630172702 88 23 3.0 7.0 0.00 0.00 0.00 46 1010.5
20220630172502 89 90 5.0 7.0 0.00 0.00 0.00 48 1010.5
20220630172403 89 45 3.0 4.0 0.00 0.00 0.00 48 1010.5
20220630172303 89 203 4.0 4.0 0.00 0.00 0.00 48 1010.5
20220630172203 89 203 1.0 4.0 0.00 0.00 0.00 49 1010.5
20220630172003 89 203 1.0 4.0 0.00 0.00 0.00 49 1010.5
20220630171803 88 270 4.0 5.0 0.00 0.00 0.00 48 1010.5
20220630171602 88 270 4.0 5.0 0.00 0.00 0.00 48 1010.5
20220630171502 88 248 4.0 5.0 0.00 0.00 0.00 48 1010.8
20220630171402 88 23 5.0 5.0 0.00 0.00 0.00 48 1010.8
20220630171303 88 23 4.0 5.0 0.00 0.00 0.00 48 1010.8
20220630171203 88 180 2.0 9.0 0.00 0.00 0.00 49 1010.8
20220630170903 87 180 5.0 9.0 0.00 0.00 0.00 48 1010.8
20220630170802 87 248 9.0 9.0 0.00 0.00 0.00 48 1010.8
20220630170704 87 248 3.0 4.0 0.00 0.00 0.00 49 1010.8
20220630170503 87 293 3.0 7.0 0.00 0.00 0.00 49 1010.8
20220630170303 86 270 2.0 7.0 0.00 0.00 0.00 49 1010.8